Hourly Data Report for June 24, 2021

ST-JOVITE
QUEBEC
Current Station Operator: ECCC - MSC

46°04'49.000" N
74°33'21.000" W
238.50 m
703GDKB
71376
WJT

Download Data

Hourly Data (June 2021)
Hourly Data Report for June 24, 2021
TIME
LST
Temp Definition
°C
Dew Point Definition
°C
Rel Hum Definition
%
Precip. Amount Definition
mm

Wind Dir Definition
10's deg

Wind Spd Definition
km/h
Visibility Definition
km
Stn Press Definition
kPa
Hmdx Definition


Wind Chill Definition


Weather Definition


00:00 8.9 8.0 94 0.0 0 1   99.46     LegendNANA
01:00 8.3 7.6 95 0.0 0 1   99.48     LegendNANA
02:00 8.2 7.7 96 0.0 6 2   99.50     LegendNANA
03:00 7.1 6.7 97 0.0   0   99.55     LegendNANA
04:00 7.0 6.5 97 0.0 0 1   99.58     LegendNANA
05:00 6.9 6.4 97 0.0 0 1   99.61     LegendNANA
06:00 9.0 8.3 95 0.0   0   99.60     LegendNANA
07:00 12.4 9.7 84 0.0 20 2   99.58     LegendNANA
08:00 17.2 9.9 62 0.0 19 4   99.55     LegendNANA
09:00 19.1 9.9 55 0.0 20 7   99.57     LegendNANA
10:00 22.2 10.8 48 0.0 20 7   99.56     LegendNANA
11:00 23.9 12.4 48 0.0 19 7   99.53 26   LegendNANA
12:00 24.8 11.4 43 0.0 20 10   99.45 27   LegendNANA
13:00 26.2 10.9 38 0.0 22 10   99.41 28   LegendNANA
14:00 26.9 11.5 38 0.0 20 9   99.40 29   LegendNANA
15:00 25.3 10.5 39 0.0 19 9   99.39 27   LegendNANA
16:00 25.2 11.5 42 0.0 23 13   99.34 27   LegendNANA
17:00 24.5 11.5 44 0.0 22 8   99.31 27   LegendNANA
18:00 23.9 12.0 48 0.0 18 4   99.30 26   LegendNANA
19:00 22.3 13.2 56 0.0 20 2   99.35 25   LegendNANA
20:00 20.4 11.8 58 0.0 0 1   99.35     LegendNANA
21:00 19.6 12.1 62 0.0 19 1   99.39     LegendNANA
22:00 18.0 12.1 68 0.0 0 1   99.40     LegendNANA
23:00 17.3 12.4 73 0.0 0 1   99.40     LegendNANA

Notes on Data Quality.

Legend

  • E = Estimated
  • M = Missing
  • NA = Not Available*
  • [empty] = Indicates an unobserved value
Date modified: